ROBUSTA-1B (42792 NORAD) Tracking and Keplerian Element Data

This shows tracking and keplerian element data for the satellite.

Feedback or suggestion? Click here.




ElementValue
Catalog42792
NameROBUSTA-1B
Epoch Orbit7744
Epoch Day318.83712933
Epoch Year2018
RAAN16.2642
Inclination97.3832
Eccentricity0.0009604
Argument of Perigee268.5258
Mean Anonmoly91.4879
Mean Motion15.22429826
Decay Rate1.25E-05
L11 42792U 17036AD 18318.83712933 .00001250 00000-0 57047-4 0 9993
L22 42792 97.3832 16.2642 0009604 268.5258 91.4879 15.22429826 77445

Live tracking and technical data element details for ROBUSTA-1B (NORAD 42792). ROBUSTA-1B can be tracked NOW for your location showing map with azimuth and elevation plus other details from your city location.

Track the satellite on the map from your city or location and see movement details for azimuth, elevation, latitude, longitude, range, height, and movement on the map or in text.







IsCatalogInMostPopularTable: catalog: 42792, numindb: 104
Update: records affected: 1



GetName: 42792 ROBUSTA-1B

Hit Count: updated at: Fri, 16 Nov 2018 05:28:03 GMT